Regional Weather Roundup
Issued by NWS

Home | Current Version | Previous Version | Text Only | Print | Product List | Glossary On
Versions: 1 2 3 4 5 6 7 8 9 10 11 12 13 14 15 16 17 18 19 20 21 22 23 24 25 26 27 28 29 30 31 32 33 34 35 36 37 38 39 40 41 42 43 44 45 46 47 48 49 50
000
ASUS43 KDTX 250501
RWRMI
MICHIGAN HOURLY REGIONAL WEATHER ROUNDUP
NATIONAL WEATHER SERVICE DETROIT/PONTIAC MI
1200 AM EST SUN JAN 25 2015

NOTE: "FAIR" INDICATES FEW OR NO CLOUDS BELOW 12,000 FEET WITH NO
SIGNIFICANT WEATHER AND/OR OBSTRUCTION TO VISIBILITY.

MIZ047>049-052>055-059>063-066>070-074>076-081>083-250600-
SOUTHEAST LOWER MICHIGAN

CITY           SKY/WX    TMP DP  RH WIND       PRES   REMARKS
ADRIAN         CLOUDY    34  31  88 W5        29.69S WCI  30
ALMA           CLOUDY    33  28  84 N7        29.68R WCI  26
ANN ARBOR      CLOUDY    34  33  96 W5        29.67S FOG     WCI  30
BAD AXE        CLOUDY    27  22  83 N10G16    29.68R WCI  17
CARO           CLOUDY    32  24  73 NW10      29.67R WCI  24
DETROIT CITY   CLOUDY    37  31  78 W8        29.67R WCI  31
DETROIT        CLOUDY    34  32  92 SW7       29.68R WCI  28
FLINT          CLOUDY    36  32  85 W7        29.67R WCI  30
GROSSE ILE     CLOUDY    36  32  87 SW5       29.67R WCI  32
HILLSDALE      CLOUDY    36  33  89 SW3       29.67R
HOWELL         CLOUDY    33  32  97 W5        29.65S FOG     WCI  28

CITY           SKY/WX    TMP DP  RH WIND       PRES   REMARKS
JACKSON        CLOUDY    34  31  88 SW5       29.66S WCI  30
LAMBERTVILLE   CLOUDY    36  32  87 CALM      29.69S
LANSING        CLOUDY    34  32  92 W6        29.67R FOG     WCI  29
LAPEER         LGT RAIN  33  32  96 NW6       29.66R WCI  27
MASON          CLOUDY    32  32  97 CALM      29.67R FOG
MONROE         MIX PCPN  34  32  93 W6        29.67S WCI  29
MT. CLEMENS    CLOUDY    35  32  90 W5        29.65R WCI  31
PONTIAC        CLOUDY    34  31  88 W6          N/A  WCI  29
PORT HOPE        N/A     28  19  69 NW8       29.67R WCI  20
PORT HURON     CLOUDY    34  32  93 CALM      29.66R
TRI CITIES     CLOUDY    35  27  72 N9        29.68R WCI  28
TROY           CLOUDY    37  32  84 W6        29.68S WCI  32
SAGINAW HB     CLOUDY    34  28  80 N6        29.67R WCI  29
$$
MIZ043>046-050>051-056>058-064>065-071>073-077>080-250600-
SOUTHWEST LOWER MICHIGAN

CITY           SKY/WX    TMP DP  RH WIND       PRES   REMARKS
BATTLE CREEK   CLOUDY    36  31  82 SW6       29.68R WCI  31
BENTON HARBOR  CLOUDY    35  33  92 CALM      29.69R FOG
BIG RAPIDS     CLOUDY    30  27  90 N10       29.68R FOG     WCI  21
COLDWATER      CLOUDY    35  32  90 SW6       29.67S WCI  30
FREMONT        FLURRIES  32  31  95 N9        29.68R WCI  24
HOLLAND        CLOUDY    38  33  82 NW3       29.68S
GRAND RAPIDS   LGT SNOW  34  32  92 CALM      29.67S FOG
IONIA          CLOUDY    34  33  98 W3        29.66R FOG
KALAMAZOO      CLOUDY    36  30  79 SW3       29.68R
LUDINGTON      CLOUDY    31  24  75 N7        29.73R WCI  24
MARSHALL       CLOUDY    34  31  90 SW3       29.67R
MOUNT PLEASANT CLOUDY    32  25  74 CALM      29.68R
MUSKEGON       CLOUDY    36  33  89 CALM      29.68R FOG
SOUTH HAVEN    CLOUDY    37  33  87 N3        29.68S
$$
MIZ016>042-250600-
NORTHERN LOWER MICHIGAN

CITY           SKY/WX    TMP DP  RH WIND       PRES   REMARKS
ALPENA         PTCLDY    19   9  65 N12       29.73R WCI   7
BEAVER ISLAND  CLOUDY    18  11  75 CALM      29.78R
BELLAIRE       CLOUDY    19  12  73 CALM      29.77R
CADILLAC       CLOUDY    20  15  79 N9        29.68R WCI  10
CHARLEVOIX     MOCLDY    19  13  78 N13       29.79R WCI   5
FRANKFORT      CLOUDY    24  18  78 CALM      29.75R
GAYLORD        CLOUDY    16  11  80 VRB5      29.70R WCI   9
GRAYLING       CLOUDY    21  14  76 N6        29.71R WCI  13
HARBOR SPRINGS CLEAR     16  10  75 N7        29.75R WCI   7
HOUGHTON LAKE  CLOUDY    22  14  71 N3        29.70R
MANISTEE       CLOUDY    25  16  68 NE7       29.75R WCI  17
OSCODA         CLOUDY    23  15  70 N10       29.70R WCI  13
PELLSTON       CLEAR     13   7  77 N5        29.77R WCI   5
ROGERS CITY    CLOUDY    18  12  77 N9G16     29.75R WCI   7
TRAVERSE CITY  CLOUDY    23  14  68 NE12G21   29.74R WCI  12
$$
MIZ007>008-015-250600-
EASTERN UPPER MICHIGAN

CITY           SKY/WX    TMP DP  RH WIND       PRES   REMARKS
KINROSS        CLEAR      7   3  85 N6        29.76R WCI  -3
MACKINAC ISLAN CLEAR     13   6  76 N14       29.75R WCI  -3
S. S. MARIE    PTCLDY     8  -1  66 N10       29.77R WCI  -6
MUNISING         N/A     20  11  68 N17       29.79R WCI   5
$$
MIZ004>006-011>014-085-250600-
CENTRAL UPPER MICHIGAN

CITY           SKY/WX    TMP DP  RH WIND       PRES   REMARKS
MANISTIQUE     CLOUDY    18  13  79 N9        29.78R WCI   7
ESCANABA       CLOUDY   N/A N/A N/A MISG        N/A
MENOMINEE      CLOUDY    21  12  68 NE14      29.78R WCI   8
SAWYER-GWINN   LGT SNOW  18  14  84 NE12      29.76R WCI   5
$$
MIZ001>003-009>011-084-250600-
WESTERN UPPER MICHIGAN

CITY           SKY/WX    TMP DP  RH WIND       PRES   REMARKS
IRON MOUNTAIN  CLOUDY    18   9  68 N7        29.77R WCI   9
HOUGHTON       LGT SNOW  16  10  77 NE8       29.83R WCI   5
COPPER HARBOR    N/A     17   7  64 E8G18     29.87R WCI   7
IRONWOOD       CLOUDY    16   9  73 NE8       29.79R WCI   5
$$

ABBREVIATIONS USED IN REMARKS
   TC - TEMPERATURE IN CELSIUS
  WCI - WIND CHILL INDEX
   HX - HEAT INDEX
  VSB - VISIBILITY



USA.gov is the U.S. government's official web portal to all federal, state and local government web resources and services.